Vorticity
6 11 16 23 33 37 33 21 14 10 7 3 -2 -6 -8 -10 -9 -7 -5 -2 2 3 3 0 -1 -2 -0 2 4 6 7 9 12 13 14 14 14 14 14 14 13 12 12 11 11 11 11 11 10 10 10 9 9 8 8 8 8 7 7 7 7 7 7 6 6 5 5 4 4
5 10 17 24 31 31 24 12 6 0 -5 -10 -12 -10 -4 1 3 5 4 2 1 -2 -5 -6 -5 -3 -1 2 4 6 8 10 11 12 13 13 14 14 15 15 15 14 13 12 12 11 11 10 10 10 10 9 9 9 9 8 7 7 7 6 7 6 6 5 5 5 5 5 5
4 8 12 17 18 15 10 4 1 -2 -3 -4 -4 -2 -2 -5 -7 -8 -6 -3 -2 -4 -6 -6 -3 -1 1 2 6 8 10 10 10 11 12 13 14 14 15 15 15 14 14 13 13 12 11 11 11 10 10 9 9 9 9 9 8 7 7 7 7 7 6 5 6 6 6 6 6
-1 -1 -0 3 7 7 5 2 -0 -1 2 6 8 8 7 5 6 9 11 12 9 7 4 2 2 3 5 6 7 9 10 10 10 10 11 12 13 13 13 13 13 13 13 13 13 12 12 12 12 11 11 10 10 10 9 9 9 9 8 8 8 7 7 7 7 7 7 7 7
-3 -7 -11 -12 -6 -2 0 -0 -3 -4 -1 5 11 15 17 18 20 22 24 24 22 20 16 13 11 9 8 8 8 8 9 10 10 10 10 10 11 11 11 12 12 13 13 13 12 12 12 12 12 12 12 12 12 11 10 10 10 10 10 9 9 8 8 8 8 8 8 9 10
-2 -7 -11 -10 -1 5 6 3 -3 -6 -5 -0 6 10 14 16 17 18 19 18 16 14 12 11 9 8 7 7 8 8 8 8 9 8 8 8 8 8 9 10 11 12 12 13 12 12 12 12 12 13 13 13 13 13 12 12 12 11 11 11 11 10 10 10 10 10 11 11 12
-5 -6 -3 3 9 13 15 14 7 -0 -5 -5 -1 2 5 6 8 8 7 6 5 5 5 4 3 3 3 4 6 6 7 7 7 7 6 6 6 7 7 9 10 11 12 12 12 12 12 12 13 13 13 13 14 14 14 14 13 13 13 13 13 13 12 12 13 12 12 12 12
-10 -3 6 11 7 6 8 14 16 12 5 -1 -2 -0 2 4 4 4 2 2 2 1 -1 -2 -2 -1 0 2 4 6 6 6 6 6 6 5 5 5 6 7 9 10 11 12 12 13 13 13 13 13 13 13 14 14 14 14 14 14 14 14 14 14 14 14 13 13 13 12 12
-0 6 11 12 5 -2 -4 0 14 21 20 10 4 1 2 4 5 4 2 1 -1 -3 -4 -4 -3 -1 1 4 6 6 7 7 7 7 6 5 5 4 5 6 7 9 10 12 13 13 13 13 13 13 13 13 13 13 14 14 14 14 14 15 15 14 14 13 13 12 11 10 10
6 9 13 14 6 -2 -9 -11 0 16 26 24 11 3 -0 1 3 3 2 -1 -4 -4 -3 -2 -1 2 5 6 7 8 8 8 8 8 8 7 6 5 4 4 6 7 9 11 12 13 13 13 13 13 13 13 13 13 13 13 13 13 13 14 14 13 13 12 11 10 9 8 8
18 14 13 13 8 1 -6 -10 -4 8 20 27 17 7 -0 -3 -2 -1 -1 -2 -2 -1 0 1 3 5 6 7 9 10 10 9 8 8 7 7 6 5 4 4 5 6 9 11 12 13 13 13 14 14 14 14 13 13 13 13 12 12 12 12 12 11 10 10 9 8 8 8 7
38 28 18 12 9 5 1 -2 1 8 17 24 18 10 3 -2 -4 -4 -3 -2 1 2 2 3 4 4 5 8 12 14 13 10 7 6 6 6 6 5 4 3 4 5 8 10 12 13 13 13 14 14 14 14 14 13 13 12 11 11 10 10 9 9 9 8 8 8 7 7 7
48 43 29 12 9 6 4 1 4 10 16 18 14 8 3 -1 -3 -3 -2 -0 2 3 3 3 3 3 6 12 18 18 15 10 7 6 6 6 6 6 5 3 3 4 6 9 12 13 13 14 14 14 14 14 13 13 13 12 11 10 9 9 8 8 8 8 8 8 7 7 7
46 49 38 16 9 5 3 1 4 8 11 11 6 1 -3 -4 -4 -2 0 3 5 5 4 3 3 6 11 19 22 21 16 11 9 8 9 9 9 9 7 5 3 3 4 7 10 12 13 14 14 14 14 14 13 13 12 11 10 10 9 8 8 8 8 8 8 8 8 8 8
35 44 41 23 10 3 1 0 3 5 6 3 -3 -6 -7 -7 -5 -3 1 6 8 8 6 5 6 11 16 22 22 19 14 9 8 8 10 12 13 13 11 9 6 4 3 5 8 11 13 14 14 14 14 14 13 13 12 11 10 10 9 9 9 9 9 9 9 9 9 9 9
24 35 39 30 15 5 -1 -1 1 1 -1 -4 -7 -7 -7 -6 -5 -2 1 6 7 8 8 9 11 14 18 22 20 16 10 6 4 5 7 10 14 15 15 13 10 7 5 5 7 9 11 13 14 14 14 14 13 13 12 11 11 10 10 10 10 10 10 11 11 11 10 10 10
19 28 36 37 25 12 1 -4 -4 -5 -7 -8 -7 -5 -4 -4 -3 -1 2 4 5 8 11 13 13 15 16 18 17 13 7 3 1 0 1 4 10 14 17 16 13 10 7 5 6 8 10 12 13 14 14 14 14 13 13 12 11 11 11 11 11 12 12 12 12 12 12 11 11
15 21 29 38 37 28 16 2 -4 -7 -8 -7 -4 -2 -1 -2 -1 0 2 3 7 11 14 14 12 13 14 16 15 11 6 0 -2 -2 -2 0 6 12 17 18 16 12 9 6 5 6 9 12 14 15 15 15 14 14 14 13 13 13 12 12 13 13 13 13 13 12 12 12 11
12 14 19 27 37 40 35 22 9 1 -3 -2 -0 1 1 0 0 0 2 7 13 15 15 11 9 10 13 16 15 11 5 -0 -2 -2 -1 1 5 11 17 20 18 14 10 6 4 5 8 13 15 16 16 16 15 15 15 15 14 14 14 14 14 14 14 14 13 13 12 12 11
11 10 11 15 24 33 38 37 25 15 7 4 4 3 2 0 1 3 7 14 17 16 12 7 7 10 14 18 15 11 5 -0 -1 -0 2 4 8 13 18 22 19 15 10 6 5 6 8 12 16 17 18 17 16 16 16 16 16 15 15 15 14 14 14 14 13 13 12 12 11
11 9 9 9 11 18 28 38 33 24 15 9 7 4 2 0 4 10 16 19 15 10 6 6 9 13 15 16 12 7 3 0 0 2 6 8 11 15 19 22 20 16 11 6 5 6 8 12 16 18 18 18 17 17 16 16 16 15 15 15 14 14 13 13 13 12 12 11 11
11 9 7 6 5 10 19 31 31 25 18 11 7 5 4 6 13 18 20 15 6 3 4 9 13 13 12 9 4 1 -0 0 2 5 8 11 14 17 20 22 21 17 12 8 7 7 9 12 15 17 18 18 17 17 16 16 15 15 14 14 13 13 13 12 12 12 11 11 11
15 12 9 7 9 13 19 26 24 20 14 9 7 8 11 16 20 20 14 3 -2 1 7 14 13 10 5 1 -2 -2 -2 0 3 6 10 13 16 18 20 22 21 18 13 10 9 9 11 13 15 16 17 17 16 16 15 15 14 14 13 13 13 12 12 12 12 11 11 11 10
17 18 19 20 23 26 27 26 21 16 12 10 12 16 20 22 18 11 2 -7 -3 5 13 15 10 4 -0 -4 -4 -3 -0 2 6 10 13 16 18 20 20 22 22 19 15 11 10 11 13 14 15 15 16 16 15 15 14 14 13 13 13 12 12 12 11 11 11 11 10 10 10
21 25 29 32 34 35 35 34 30 25 22 21 22 23 21 16 8 -0 -7 -7 3 12 16 13 6 1 -3 -4 -2 0 3 7 10 14 17 20 21 21 21 21 21 19 16 13 12 12 14 15 15 14 14 14 14 13 13 13 13 12 12 12 11 11 10 10 10 10 10 10 10
24 27 28 27 27 27 28 30 30 31 31 30 28 23 17 9 1 -5 -5 1 12 17 16 9 3 -0 -2 -1 1 4 7 12 15 18 20 21 21 21 21 20 20 18 17 14 13 13 14 15 15 14 14 13 13 13 13 13 13 12 12 11 11 10 10 9 9 9 9 9 9
20 20 16 11 8 7 8 12 15 18 21 23 22 18 12 4 -1 -1 4 15 21 20 14 6 2 1 1 2 5 8 12 16 18 20 20 20 20 20 19 18 18 17 16 15 14 14 14 14 14 13 13 13 13 12 12 13 13 13 12 12 11 11 10 10 10 9 9 9 9
12 10 7 3 1 2 3 5 5 5 6 7 7 6 3 1 6 14 23 29 25 18 10 4 3 3 4 5 9 13 16 18 18 19 19 19 19 18 17 16 15 15 14 14 14 14 14 13 13 13 12 12 12 12 12 12 12 12 12 12 12 12 11 11 11 10 10 9 9
8 6 5 4 7 8 9 7 5 3 3 3 3 6 11 20 30 34 33 27 18 10 6 4 4 5 6 10 14 17 18 19 18 17 17 17 17 16 15 14 13 13 13 13 14 15 15 14 13 12 12 12 12 12 12 12 12 11 11 11 11 11 11 11 11 11 11 10 10
14 12 10 10 12 13 13 11 10 11 13 17 23 30 37 40 37 31 22 14 9 7 6 6 5 7 10 15 17 18 19 18 17 16 16 16 15 14 13 13 12 12 12 12 13 14 15 14 13 13 13 13 13 13 12 12 12 11 11 11 11 11 11 11 11 11 11 11 11
22 20 19 19 20 20 20 20 22 25 30 35 39 40 38 32 24 18 13 10 9 8 7 7 8 12 15 17 18 18 17 15 16 16 16 15 14 13 13 12 12 12 12 12 13 13 14 14 14 13 13 13 13 13 13 13 12 12 11 11 11 11 11 11 11 11 11 11 11
24 24 24 24 25 25 25 26 29 31 33 34 32 28 24 20 16 14 13 11 9 8 8 10 13 15 16 17 17 17 16 15 15 15 14 13 12 11 10 10 10 11 11 11 12 13 13 13 13 13 13 13 13 13 13 13 12 12 11 11 11 11 11 11 10 11 11 11 11
23 23 23 23 23 23 23 25 26 26 24 23 21 20 18 17 15 13 12 10 10 11 13 14 15 15 15 14 14 15 15 15 14 13 12 11 9 9 8 8 9 9 10 10 11 11 12 12 12 11 11 12 13 13 13 13 12 12 12 11 11 11 11 11 11 11 11 11 11
23 22 22 21 20 20 20 22 21 20 19 18 18 17 16 15 13 12 12 12 13 15 15 15 14 13 13 12 12 12 12 13 13 12 11 10 9 8 8 8 9 9 9 9 10 10 10 11 11 10 10 11 12 13 13 13 13 12 12 12 12 12 12 12 12 12 12 12 12
25 24 23 22 20 20 20 20 20 18 17 15 13 13 13 13 12 13 13 13 14 14 14 14 14 13 13 13 12 11 11 10 11 11 10 10 9 9 8 8 9 9 9 9 9 10 10 10 10 10 10 11 12 13 13 13 13 12 12 12 12 13 13 13 13 13 13 13 13
24 24 23 21 20 18 18 17 16 15 13 12 11 11 12 13 14 14 14 13 13 13 13 13 13 13 13 12 11 11 10 9 9 10 10 10 9 9 8 8 9 10 10 9 9 10 10 10 11 11 11 11 11 12 13 13 13 12 12 12 13 13 13 13 14 14 14 14 14
20 20 19 18 16 15 14 13 13 12 11 11 11 11 12 13 14 14 13 13 13 13 12 12 12 12 11 10 9 9 9 9 9 9 10 10 9 9 9 9 10 10 10 9 9 9 10 10 11 11 11 11 11 12 12 12 12 12 12 12 13 13 13 13 13 13 13 13 14
15 16 16 16 14 13 11 11 11 10 10 10 11 11 12 13 13 13 12 13 13 12 11 10 10 10 9 8 8 9 9 9 9 10 10 10 10 10 10 10 11 10 10 10 10 10 10 11 11 12 11 11 11 11 11 11 11 11 11 12 12 12 12 12 13 13 13 13 13
12 13 14 14 13 11 10 9 9 9 9 10 11 12 13 13 13 12 11 11 11 10 9 8 8 7 7 7 8 8 9 9 10 10 10 10 11 11 11 11 11 11 11 10 11 11 11 11 12 12 12 12 12 11 11 11 11 11 11 11 12 12 12 12 12 12 12 12 12
10 12 12 13 12 10 8 7 7 8 9 10 11 12 13 13 12 11 10 10 10 9 8 7 6 6 7 7 8 9 9 10 10 11 11 11 11 11 11 11 11 12 12 12 12 12 12 12 12 12 12 12 12 12 12 11 11 11 11 12 12 12 12 12 12 12 12 13 13
11 11 12 11 10 8 7 6 6 7 8 9 10 10 11 11 10 10 10 9 9 9 8 7 6 6 7 7 8 9 10 10 11 12 12 12 12 11 11 11 12 12 12 12 12 12 12 12 12 12 12 13 13 12 12 11 12 12 12 12 12 12 12 12 13 13 13 13 14
Height
3015 3014 3014 3014 3013 3013 3013 3013 3015 3015 3016 3016 3016 3015 3015 3015 3015 3014 3014 3014 3013 3012 3012 3011 3012 3012 3012 3012 3012 3012 3012 3012 3012 3011 3011 3010 3010 3010 3010 3009 3009 3008 3008 3008 3007 3007 3007 3007 3007 3006 3006 3006 3006 3007 3007 3007 3007 3007 3007 3007 3008 3008 3008 3009 3009 3010 3010 3010 3011
3012 3012 3012 3011 3010 3010 3010 3011 3012 3012 3013 3013 3013 3013 3012 3012 3012 3011 3011 3011 3010 3010 3010 3010 3010 3010 3010 3010 3010 3010 3010 3010 3009 3009 3008 3008 3007 3007 3007 3006 3006 3005 3005 3005 3005 3005 3004 3004 3004 3004 3004 3004 3004 3004 3004 3004 3005 3005 3005 3005 3005 3005 3006 3006 3007 3007 3008 3008 3008
3009 3009 3010 3009 3009 3009 3009 3010 3010 3010 3010 3010 3010 3010 3010 3010 3009 3009 3009 3009 3008 3008 3008 3008 3008 3008 3008 3008 3008 3008 3007 3007 3006 3006 3006 3005 3005 3004 3004 3004 3003 3003 3002 3002 3002 3002 3002 3002 3001 3001 3001 3001 3001 3001 3001 3001 3002 3002 3002 3002 3002 3003 3003 3004 3004 3005 3005 3005 3005
3005 3005 3006 3006 3006 3007 3007 3008 3008 3008 3008 3008 3008 3007 3007 3007 3006 3006 3006 3006 3006 3005 3005 3005 3006 3006 3006 3005 3005 3005 3005 3004 3004 3004 3003 3003 3002 3002 3001 3001 3000 3000 3000 3000 2999 2999 2999 2999 2999 2999 2999 2999 2999 2999 2999 2999 2999 2999 2999 3000 3000 3000 3000 3001 3001 3002 3002 3002 3003
3000 3000 3001 3001 3001 3002 3003 3003 3004 3004 3005 3005 3005 3005 3005 3004 3004 3004 3003 3003 3003 3003 3003 3003 3003 3003 3003 3003 3003 3002 3002 3001 3001 3001 3000 3000 3000 2999 2999 2998 2998 2997 2997 2997 2996 2996 2996 2996 2996 2996 2996 2996 2996 2996 2996 2996 2996 2996 2996 2997 2997 2998 2998 2998 2999 2999 3000 3000 3000
2996 2996 2996 2997 2998 2998 2999 2999 3000 3000 3001 3001 3002 3001 3001 3001 3001 3001 3001 3000 3000 3000 3000 3000 3000 3000 3000 3000 3000 3000 2999 2999 2998 2998 2998 2997 2997 2996 2996 2995 2995 2995 2994 2994 2994 2994 2993 2993 2993 2993 2993 2993 2993 2993 2993 2993 2993 2993 2994 2994 2995 2995 2995 2995 2996 2996 2997 2997 2998
2992 2993 2993 2994 2995 2995 2996 2996 2997 2997 2998 2998 2998 2998 2998 2998 2998 2998 2998 2998 2998 2997 2997 2997 2997 2997 2997 2997 2997 2997 2996 2996 2996 2995 2995 2995 2994 2994 2993 2993 2992 2992 2991 2991 2991 2990 2990 2990 2990 2990 2990 2990 2990 2990 2990 2990 2990 2990 2991 2991 2992 2992 2993 2993 2993 2994 2994 2995 2995
2989 2989 2990 2990 2991 2992 2993 2993 2994 2994 2994 2994 2994 2995 2995 2995 2995 2995 2995 2995 2995 2995 2994 2994 2994 2994 2994 2994 2994 2994 2994 2993 2993 2992 2992 2991 2991 2991 2990 2990 2990 2989 2989 2988 2988 2988 2987 2987 2987 2987 2987 2987 2987 2987 2987 2987 2987 2988 2988 2988 2989 2990 2990 2990 2991 2991 2992 2992 2992
2985 2986 2986 2987 2988 2989 2989 2990 2990 2990 2991 2991 2991 2992 2992 2992 2992 2992 2992 2992 2992 2992 2992 2991 2991 2991 2991 2991 2991 2991 2990 2990 2990 2990 2989 2989 2988 2988 2987 2987 2987 2986 2986 2985 2985 2985 2985 2985 2985 2985 2985 2985 2985 2985 2985 2985 2985 2985 2985 2986 2986 2987 2987 2988 2988 2989 2989 2990 2990
2982 2983 2983 2983 2984 2985 2986 2987 2987 2988 2988 2988 2989 2990 2990 2990 2990 2990 2990 2990 2989 2989 2989 2989 2989 2989 2988 2988 2988 2988 2988 2987 2987 2987 2986 2986 2985 2985 2985 2984 2984 2984 2983 2983 2982 2982 2982 2982 2982 2982 2982 2982 2982 2982 2982 2982 2982 2982 2983 2983 2984 2984 2985 2985 2985 2986 2986 2987 2987
2979 2979 2979 2980 2981 2982 2983 2984 2984 2985 2985 2985 2986 2986 2987 2987 2987 2987 2987 2987 2986 2986 2986 2986 2986 2986 2985 2985 2985 2985 2985 2985 2985 2984 2984 2983 2983 2982 2982 2982 2981 2981 2980 2980 2980 2979 2979 2979 2979 2979 2979 2979 2979 2979 2979 2979 2980 2980 2980 2981 2981 2981 2982 2982 2983 2983 2983 2984 2984
2975 2975 2975 2976 2977 2979 2980 2981 2981 2982 2982 2982 2983 2984 2984 2984 2984 2984 2984 2984 2984 2983 2983 2983 2983 2983 2983 2983 2983 2983 2983 2982 2982 2981 2981 2981 2980 2980 2980 2980 2979 2979 2978 2977 2977 2976 2976 2976 2976 2976 2976 2976 2976 2976 2976 2977 2977 2977 2978 2978 2979 2979 2979 2980 2980 2980 2980 2980 2981
2970 2970 2970 2972 2974 2975 2977 2978 2978 2979 2979 2979 2980 2980 2981 2981 2981 2981 2981 2981 2981 2980 2980 2980 2980 2980 2980 2980 2981 2980 2980 2980 2979 2979 2979 2978 2978 2978 2977 2977 2977 2976 2975 2975 2974 2974 2974 2973 2973 2973 2973 2974 2974 2974 2974 2974 2975 2975 2975 2976 2976 2976 2977 2977 2977 2977 2977 2977 2978
2966 2966 2967 2968 2970 2972 2973 2974 2975 2975 2976 2976 2977 2977 2978 2978 2978 2979 2978 2978 2978 2978 2977 2977 2977 2978 2978 2979 2978 2978 2977 2977 2976 2976 2976 2975 2975 2975 2975 2974 2974 2974 2973 2972 2972 2971 2971 2971 2970 2970 2970 2970 2971 2971 2971 2971 2972 2972 2973 2973 2973 2974 2974 2974 2974 2974 2974 2975 2975
2964 2964 2964 2965 2966 2968 2969 2970 2971 2971 2972 2973 2973 2974 2974 2975 2975 2975 2975 2975 2975 2975 2974 2975 2975 2976 2976 2976 2976 2975 2975 2975 2974 2974 2973 2973 2973 2972 2972 2971 2971 2971 2970 2970 2969 2969 2968 2968 2968 2968 2968 2968 2968 2968 2968 2969 2969 2969 2970 2970 2970 2971 2971 2971 2971 2971 2972 2972 2972
2961 2961 2961 2961 2962 2963 2964 2965 2966 2967 2968 2969 2969 2970 2971 2971 2972 2972 2972 2972 2971 2971 2971 2972 2973 2974 2974 2974 2973 2973 2972 2972 2971 2971 2970 2970 2970 2969 2969 2969 2968 2968 2967 2967 2966 2966 2966 2966 2965 2965 2965 2965 2965 2965 2965 2965 2966 2966 2967 2967 2967 2968 2968 2968 2968 2969 2969 2969 2970
2958 2959 2959 2959 2958 2959 2959 2961 2962 2963 2964 2965 2966 2967 2968 2968 2968 2968 2968 2968 2968 2968 2969 2970 2970 2971 2971 2971 2970 2970 2970 2969 2969 2968 2968 2967 2967 2966 2966 2966 2965 2965 2965 2964 2964 2964 2963 2963 2963 2963 2962 2962 2962 2962 2962 2962 2963 2963 2964 2964 2964 2965 2965 2965 2965 2965 2966 2966 2967
2955 2956 2956 2956 2956 2956 2956 2957 2959 2960 2961 2962 2963 2964 2964 2965 2965 2965 2965 2965 2965 2965 2966 2967 2968 2968 2968 2968 2968 2968 2967 2967 2966 2965 2965 2965 2964 2964 2963 2963 2963 2962 2962 2961 2961 2961 2961 2960 2960 2960 2960 2959 2959 2959 2960 2960 2960 2960 2961 2961 2961 2961 2962 2962 2962 2963 2963 2963 2964
2952 2953 2954 2954 2954 2954 2955 2955 2956 2957 2958 2959 2960 2960 2961 2961 2961 2961 2961 2961 2962 2963 2964 2965 2965 2965 2965 2965 2965 2965 2965 2964 2964 2963 2962 2962 2961 2961 2961 2960 2960 2960 2959 2959 2959 2959 2958 2958 2958 2957 2957 2957 2957 2957 2957 2957 2957 2958 2958 2958 2959 2959 2959 2960 2960 2960 2960 2960 2961
2950 2950 2951 2951 2951 2952 2952 2953 2954 2955 2955 2956 2956 2957 2957 2957 2957 2958 2958 2958 2959 2961 2962 2963 2963 2963 2963 2963 2963 2962 2962 2962 2961 2960 2960 2959 2959 2958 2958 2958 2957 2957 2956 2956 2956 2956 2956 2956 2955 2955 2955 2955 2954 2955 2955 2955 2955 2955 2955 2955 2956 2956 2956 2957 2957 2957 2958 2958 2959
2947 2948 2948 2949 2949 2949 2950 2950 2951 2952 2952 2953 2953 2954 2954 2954 2955 2955 2955 2956 2958 2959 2960 2960 2960 2960 2960 2960 2960 2960 2960 2959 2959 2958 2957 2956 2956 2955 2955 2955 2954 2954 2954 2954 2954 2953 2953 2953 2953 2953 2952 2952 2952 2952 2952 2952 2952 2952 2952 2953 2953 2953 2954 2954 2954 2955 2955 2955 2956
2945 2945 2946 2946 2946 2947 2947 2948 2948 2949 2950 2950 2950 2950 2951 2952 2952 2953 2954 2955 2956 2958 2958 2958 2958 2958 2958 2958 2958 2957 2957 2957 2956 2955 2955 2954 2953 2952 2952 2951 2951 2951 2951 2951 2951 2951 2951 2951 2951 2950 2950 2950 2950 2950 2949 2949 2949 2949 2950 2950 2950 2950 2951 2951 2952 2952 2953 2953 2954
2942 2943 2943 2944 2945 2945 2945 2946 2946 2947 2947 2947 2948 2948 2949 2950 2950 2951 2952 2954 2955 2955 2956 2956 2955 2955 2955 2955 2955 2955 2954 2954 2953 2952 2952 2951 2950 2949 2949 2948 2948 2948 2948 2948 2948 2948 2948 2948 2948 2948 2948 2947 2947 2947 2947 2947 2947 2947 2947 2947 2948 2948 2948 2949 2949 2950 2950 2950 2951
2940 2940 2941 2942 2943 2943 2944 2944 2945 2945 2945 2945 2946 2947 2947 2948 2949 2950 2951 2952 2953 2953 2953 2953 2953 2953 2953 2953 2953 2952 2951 2951 2950 2949 2949 2948 2947 2946 2946 2945 2945 2945 2945 2946 2946 2946 2946 2946 2946 2945 2945 2945 2945 2945 2945 2945 2945 2945 2945 2945 2945 2945 2946 2946 2947 2947 2947 2948 2948
2937 2938 2939 2940 2941 2942 2942 2943 2943 2944 2944 2944 2945 2945 2946 2947 2947 2948 2949 2950 2951 2951 2951 2951 2951 2951 2950 2950 2950 2950 2949 2948 2947 2946 2945 2945 2944 2944 2943 2942 2942 2942 2943 2943 2944 2944 2944 2943 2943 2943 2943 2943 2943 2943 2943 2942 2942 2942 2942 2943 2943 2943 2943 2944 2944 2945 2945 2945 2945
2935 2936 2937 2938 2939 2940 2940 2941 2942 2943 2943 2944 2944 2944 2945 2945 2946 2946 2947 2948 2948 2948 2948 2948 2948 2948 2948 2948 2947 2947 2946 2945 2944 2944 2943 2942 2941 2940 2940 2940 2939 2939 2940 2940 2941 2941 2941 2941 2941 2941 2941 2941 2941 2940 2940 2940 2940 2940 2940 2940 2940 2940 2941 2941 2941 2942 2942 2942 2943
2935 2935 2936 2936 2937 2937 2938 2939 2940 2941 2941 2942 2942 2942 2943 2943 2944 2945 2945 2945 2945 2946 2946 2946 2946 2946 2945 2945 2945 2944 2943 2942 2942 2941 2940 2939 2939 2938 2937 2937 2936 2936 2937 2937 2938 2939 2939 2939 2939 2939 2938 2938 2938 2938 2938 2938 2938 2938 2938 2938 2938 2938 2938 2939 2939 2939 2939 2940 2940
2933 2934 2934 2935 2935 2935 2936 2936 2937 2938 2939 2939 2940 2940 2940 2941 2941 2942 2942 2943 2943 2943 2943 2944 2944 2943 2943 2942 2941 2941 2940 2940 2939 2938 2938 2937 2936 2936 2935 2935 2934 2934 2934 2935 2936 2936 2937 2937 2936 2936 2936 2936 2936 2936 2936 2936 2936 2936 2936 2936 2936 2936 2936 2936 2936 2936 2936 2937 2937
2931 2932 2932 2933 2933 2933 2933 2934 2935 2935 2936 2937 2937 2938 2938 2939 2939 2939 2940 2940 2940 2940 2940 2941 2941 2940 2940 2939 2939 2938 2937 2937 2936 2936 2935 2935 2934 2934 2933 2933 2932 2931 2931 2932 2933 2934 2935 2935 2935 2934 2934 2934 2934 2934 2934 2934 2933 2933 2933 2933 2934 2934 2934 2934 2934 2934 2934 2934 2934
2930 2930 2930 2930 2931 2931 2931 2931 2932 2933 2934 2935 2935 2935 2936 2936 2936 2936 2937 2937 2937 2938 2938 2938 2938 2937 2937 2936 2936 2935 2935 2934 2934 2933 2933 2932 2932 2932 2931 2931 2930 2929 2928 2929 2930 2931 2932 2932 2932 2932 2932 2932 2932 2932 2931 2931 2931 2931 2931 2931 2931 2931 2931 2931 2931 2931 2931 2931 2931
2928 2928 2929 2929 2929 2929 2930 2930 2930 2931 2932 2932 2933 2933 2933 2933 2933 2934 2934 2934 2935 2935 2935 2935 2935 2935 2934 2934 2934 2933 2933 2932 2931 2931 2930 2930 2930 2930 2929 2929 2928 2927 2926 2926 2927 2929 2930 2930 2930 2930 2930 2930 2930 2930 2929 2929 2929 2929 2928 2928 2928 2928 2928 2929 2929 2929 2929 2929 2929
2927 2927 2927 2928 2928 2928 2928 2929 2929 2930 2930 2930 2930 2930 2930 2931 2931 2931 2931 2932 2932 2932 2932 2932 2932 2932 2932 2931 2931 2931 2931 2930 2930 2929 2929 2929 2928 2927 2927 2927 2926 2925 2924 2924 2924 2925 2926 2927 2928 2928 2928 2928 2928 2928 2927 2927 2926 2926 2926 2925 2925 2925 2926 2926 2926 2926 2926 2926 2926
2926 2926 2926 2926 2927 2927 2927 2927 2928 2928 2928 2928 2928 2928 2928 2928 2929 2929 2929 2929 2929 2929 2930 2930 2930 2929 2929 2929 2929 2929 2929 2928 2928 2928 2927 2927 2926 2926 2925 2925 2924 2923 2922 2921 2921 2922 2923 2925 2925 2926 2926 2926 2925 2925 2925 2924 2924 2923 2923 2923 2923 2923 2923 2923 2923 2923 2923 2923 2923
2925 2925 2925 2925 2925 2925 2926 2926 2926 2926 2926 2926 2926 2926 2926 2926 2926 2926 2926 2927 2927 2927 2927 2927 2927 2927 2927 2927 2927 2927 2926 2926 2926 2926 2926 2925 2925 2925 2924 2923 2922 2921 2920 2919 2919 2919 2920 2921 2923 2923 2924 2923 2923 2923 2922 2922 2921 2921 2920 2920 2920 2920 2920 2920 2921 2921 2921 2921 2921
2924 2924 2924 2924 2925 2925 2925 2925 2925 2925 2925 2925 2925 2924 2924 2924 2924 2925 2925 2925 2925 2925 2925 2925 2925 2925 2925 2925 2925 2925 2925 2924 2924 2924 2924 2924 2923 2923 2922 2921 2920 2920 2919 2918 2917 2917 2917 2918 2920 2921 2921 2921 2921 2920 2920 2919 2918 2918 2918 2918 2918 2918 2918 2918 2919 2919 2919 2919 2919
2923 2923 2923 2923 2923 2923 2923 2923 2923 2923 2923 2923 2923 2923 2922 2922 2923 2923 2923 2923 2923 2923 2923 2923 2923 2923 2923 2923 2923 2923 2923 2922 2922 2922 2922 2921 2921 2921 2920 2920 2919 2918 2917 2916 2915 2915 2915 2915 2917 2918 2919 2919 2919 2918 2917 2916 2916 2915 2915 2915 2916 2916 2916 2916 2916 2916 2916 2916 2916
2923 2923 2922 2922 2922 2922 2922 2922 2922 2922 2921 2921 2921 2921 2921 2921 2921 2921 2921 2921 2921 2921 2922 2922 2922 2922 2921 2921 2921 2921 2920 2920 2920 2920 2920 2919 2919 2919 2918 2918 2917 2916 2915 2915 2914 2914 2913 2913 2915 2916 2917 2917 2916 2915 2915 2914 2913 2913 2913 2913 2913 2914 2914 2914 2914 2914 2914 2914 2914
2922 2922 2922 2921 2921 2921 2921 2921 2920 2920 2920 2920 2920 2920 2920 2920 2920 2920 2920 2920 2920 2920 2920 2920 2920 2920 2920 2920 2919 2919 2919 2918 2918 2918 2917 2917 2917 2916 2916 2915 2915 2914 2914 2913 2913 2912 2912 2912 2912 2913 2914 2914 2914 2913 2912 2911 2910 2910 2911 2911 2911 2911 2911 2911 2912 2912 2912 2912 2912
2921 2920 2920 2920 2920 2920 2920 2920 2920 2919 2919 2919 2919 2919 2919 2919 2919 2919 2919 2919 2919 2919 2919 2919 2919 2918 2918 2918 2917 2917 2916 2916 2916 2915 2915 2915 2915 2914 2914 2913 2913 2912 2912 2912 2911 2911 2910 2910 2910 2911 2912 2912 2911 2910 2910 2909 2908 2908 2909 2909 2909 2909 2909 2909 2909 2909 2909 2910 2910
2920 2920 2920 2920 2919 2919 2919 2919 2919 2918 2918 2918 2918 2918 2918 2918 2918 2918 2918 2918 2918 2918 2918 2917 2917 2917 2916 2916 2915 2915 2915 2914 2914 2913 2913 2913 2912 2912 2911 2911 2911 2910 2910 2910 2910 2909 2909 2908 2909 2909 2910 2910 2909 2909 2908 2907 2906 2906 2906 2906 2906 2907 2907 2907 2907 2907 2907 2907 2907
2920 2920 2919 2919 2919 2919 2918 2918 2918 2917 2917 2917 2917 2917 2917 2917 2917 2917 2917 2916 2916 2916 2916 2916 2915 2915 2915 2914 2914 2913 2913 2912 2911 2911 2910 2910 2910 2909 2909 2909 2909 2909 2909 2909 2908 2907 2907 2906 2906 2907 2908 2908 2907 2906 2906 2905 2905 2904 2904 2904 2904 2904 2904 2904 2905 2905 2905 2905 2905